Regional Weather Roundup
Issued by NWS

Home | Current Version | Previous Version | Graphics & Text | Print | Product List | Glossary On
Versions: 1 2 3 4 5 6 7 8 9 10 11 12 13 14 15 16 17 18 19 20 21 22 23 24 25 26 27 28 29 30 31 32 33 34 35 36 37 38 39 40 41 42 43 44 45 46 47 48 49 50
000
ASUS45 KPSR 231410
RWRAZ

ARIZONA REGIONAL HOURLY WEATHER ROUNDUP
NATIONAL WEATHER SERVICE PHOENIX AZ
700 AM MST SUN NOV 23 2014

NOTE: FAIR INDICATES FEW OR NO CLOUDS BELOW 12,000 FEET WITH NO
SIGNIFICANT WEATHER AND/OR OBSTRUCTIONS TO VISIBILITY.

AZZ001>003-036-231500-
NORTHWEST ARIZONA

CITY           SKY/WX    TMP DP  RH WIND       PRES   REMARKS
BULLHEAD CITY  CLEAR     61  25  25 N14       30.11R
KINGMAN        CLEAR     46  17  31 N16       30.13R
$$

AZZ004>008-015-016-018-231500-
NORTH CENTRAL ARIZONA

CITY           SKY/WX    TMP DP  RH WIND       PRES   REMARKS
GRAND CANYON   CLEAR     34  18  52 N10G17    30.08R WCI  26
PRESCOTT       CLEAR     41  24  51 NW18      30.06R
FLAGSTAFF      CLEAR     34  15  46 NW9G20    30.04R WCI  27
PAYSON         PTCLDY    36  23  60 CALM      30.05R
$$

AZZ009>014-017-231500-
NORTHEAST ARIZONA

CITY           SKY/WX    TMP DP  RH WIND       PRES   REMARKS
WINSLOW        MOCLDY    45  26  47 NW16      30.01R
SAINT JOHNS    CLEAR     42  25  50 W18       29.96R
SHOW LOW       CLEAR     36  19  51 SW13G20   30.05R WCI  27
$$

AZZ023-231500-
GREATER PHOENIX AREA

CITY           SKY/WX    TMP DP  RH WIND       PRES   REMARKS
PHOENIX        MOCLDY    48  33  56 E5        29.98R
BUCKEYE          N/A     41  25  52 CALM      30.01R
GLENDALE       PTCLDY    45  32  61 NW5       30.01
LUKE AFB       CLEAR     45  30  57 N6        29.95R
DEER VALLEY    PTCLDY    45  28  51 CALM      29.99R
SCOTTSDALE     PTCLDY    47  32  56 CALM      30.00R
MESA-FALCON    PTCLDY    46  30  53 N7        29.99
MESA-GATEWAY   PTCLDY    45  28  53 SE7       30.01R
CHANDLER       PTCLDY    45  32  61 CALM      29.99R
$$

AZZ027-028-231500-
SOUTHWEST MARICOPA COUNTY AND PINAL COUNTY

CITY           SKY/WX    TMP DP  RH WIND       PRES   REMARKS
CASA GRANDE    PTCLDY    43  25  49 MISG      30.00R
$$

AZZ503-504-507>509-231500-
SOUTHEAST ARIZONA

CITY           SKY/WX    TMP DP  RH WIND       PRES   REMARKS
TUCSON         PTCLDY    44  30  57 CALM      30.04R
DAVIS-MONTHAN  MOCLDY    43  30  60 SE7       30.02R
RYAN FIELD       N/A    N/A N/A N/A S3        30.03R
NOGALES        PTCLDY    36  29  75 CALM      30.05R
SIERRA VISTA   PTCLDY    46  25  43 NW6       30.04R
DOUGLAS        PTCLDY    36  27  69 E5        30.03R WCI  32
SAFFORD        CLEAR     39  22  50 SE5       29.96R
$$

AZZ020-021-025-026-031-231500-
SOUTHWEST ARIZONA

CITY           SKY/WX    TMP DP  RH WIND       PRES   REMARKS
YUMA           PTCLDY    55  43  63 CALM      30.01R
$$

CAZ031-033-041-043-047-048-061-231500-
SOUTHERN CALIFORNIA

CITY           SKY/WX    TMP DP  RH WIND       PRES   REMARKS
DOWNTOWN L.A.  CLEAR     58  53  84 CALM      30.07R
L.A. AIRPORT   PTCLDY    60  50  69 NE6       30.08R
SAN DIEGO      PTCLDY    57  50  77 CALM      30.07R
BURBANK        CLEAR     63  39  41 NW6       30.10R
ONTARIO        CLEAR     53  50  89 CALM      30.08R
RIVERSIDE      CLEAR     50  47  89 CALM      30.09R
PALM SPRINGS   PTCLDY    61  39  44 W7        30.09R
EL CENTRO NAS  CLEAR     51  43  74 N3        30.02R
IMPERIAL       CLEAR     53  46  77 N3        30.02R
BLYTHE         PTCLDY    62  40  44 N10       30.03R
NEEDLES        PTCLDY    60  26  27 N12       30.10R
$$

NVZ020-UTZ003-231500-
SOUTHERN NEVADA-UTAH

CITY           SKY/WX    TMP DP  RH WIND       PRES   REMARKS
LAS VEGAS      CLEAR     54  17  23 N15G22    30.15R
SALT LAKE CITY FLURRIES  34  27  75 N14       30.14R WCI  25
$$

NMZ009-TXZ055-231500-
NEW MEXICO-WEST TEXAS

CITY           SKY/WX    TMP DP  RH WIND       PRES   REMARKS
ALBUQUERQUE    PTCLDY    43  21  41 W15       29.82R
EL PASO        PTCLDY    48  22  35 E5        29.90R
$$


........................KEY........................
SKY/WX - SKY CONDITION/WEATHER
TMP    - TEMPERATURE IN FAHRENHEIT
DP     - DEW POINT IN FAHRENHEIT
RH     - RELATIVE HUMIDITY IN PERCENT
WIND   - DIRECTION AND SPEED IN MILES PER HOUR (MPH)
VRB    - VARIABLE WIND DIRECTION
PRES   - MEAN SEA LEVEL PRESSURE IN INCHES OF MERCURY
         F - FALLING PRESSURE   R - RISING PRESSURE
         S - STEADY PRESSURE
VSB    - VISIBILITY IN MILES
HX     - HEAT INDEX IN FAHRENHEIT
WCI    - WIND CHILL INDEX IN FAHRENHEIT
TC     - TEMPERATURE IN CELSIUS WHICH IS ALSO KNOWN AS
         TEMPERATURE IN CENTIGRADE
AFB    - AIR FORCE BASE
         LUKE AFB IS LUKE AIR FORCE BASE
         DAVIS-MONTHAN IS DAVIS-MONTHAN AIR FORCE BASE
NAS    - NAVAL AIR STATION
         EL CENTRO NAS IS EL CENTRO NAVAL AIR STATION
N/A    - NOT AVAILABLE


USA.gov is the U.S. government's official web portal to all federal, state and local government web resources and services.